Dewpoint
55 47 53 46 33 35 32 27 30 26 24 26 26 21 23 43 47 43 62 63 67 68 69 70 72 73 73 73 73 73 73 73 73 72 73 73 72 73 73 73 72 72 72 72 71 71 70 69 70
56 49 39 33 31 27 19 27 22 24 26 24 21 27 50 49 55 61 61 65 67 68 69 69 72 72 73 73 72 73 73 73 73 73 73 72 72 73 73 72 72 72 72 72 71 70 69 70 71
52 46 37 29 27 24 21 24 21 20 18 16 19 34 49 53 58 61 63 65 67 67 68 69 71 72 72 72 72 72 73 73 72 72 73 73 73 73 73 72 71 71 70 72 70 69 70 70 70
38 43 35 27 23 24 23 21 19 16 11 11 16 51 55 58 59 61 64 66 66 68 68 70 71 71 72 72 72 72 72 72 72 72 72 73 73 73 72 71 71 71 71 71 69 69 70 70 69
32 34 29 23 21 19 19 18 16 13 11 12 25 52 55 60 62 63 64 65 67 68 69 70 70 71 71 72 72 72 71 71 71 71 71 71 71 72 71 71 71 71 71 70 69 69 69 69 68
34 28 23 21 21 20 21 20 15 12 9 11 16 51 56 62 62 62 62 65 66 68 69 69 70 71 71 71 71 71 70 70 71 70 71 70 70 70 71 71 70 70 70 69 68 68 69 68 67
34 32 28 23 24 22 22 17 11 12 9 7 11 53 56 58 62 61 63 65 66 68 68 68 69 70 70 70 70 69 70 70 70 70 69 69 69 70 71 70 70 70 70 68 68 68 68 68 67
33 31 28 27 20 20 20 19 12 14 12 12 12 33 54 58 63 64 64 65 65 66 67 68 68 69 69 69 69 69 69 69 69 69 69 69 69 69 70 70 70 70 69 68 68 68 68 67 67
25 20 20 24 20 20 21 16 16 16 10 12 19 52 59 63 64 63 63 63 63 65 66 67 68 67 67 68 69 69 69 69 68 68 69 68 68 69 68 69 69 69 67 67 67 67 66 67 66
21 19 20 20 19 18 18 16 16 10 10 12 17 54 60 62 63 62 62 62 62 63 65 66 66 67 67 68 69 68 68 68 67 67 67 68 68 68 68 68 68 68 67 67 67 66 66 66 64
26 17 19 19 20 22 16 7 10 9 7 7 11 12 47 59 61 61 62 62 62 63 65 65 66 67 67 66 68 68 67 67 67 67 67 67 68 68 66 65 67 67 67 65 65 64 64 64 63
4 13 15 11 7 6 4 6 9 8 8 9 16 28 33 34 40 47 53 61 62 63 64 65 66 66 67 66 67 67 67 67 66 66 67 67 67 67 65 63 63 66 65 64 64 63 64 64 62
5 8 11 9 5 3 5 3 6 9 16 29 30 31 32 34 34 34 36 39 57 63 64 65 66 66 66 66 67 67 66 67 66 66 66 67 66 66 66 64 63 65 65 63 63 63 64 62 61
11 13 12 8 7 1 2 2 2 6 27 28 28 28 30 30 31 32 33 35 37 41 63 65 66 66 66 65 66 66 66 66 66 66 66 66 66 66 66 65 63 65 65 63 63 63 64 62 61
15 12 5 3 -3 -3 0 1 21 19 27 26 26 26 27 28 29 30 32 34 35 37 42 65 66 66 65 65 66 67 67 66 66 67 67 67 67 66 65 65 63 63 65 63 63 65 64 62 61
5 3 -0 3 1 -2 -2 7 25 26 26 26 26 26 27 27 28 30 31 33 35 36 39 49 66 66 66 65 66 66 67 67 66 67 67 67 66 66 64 65 64 64 63 64 63 64 63 61 59
3 -1 1 -1 2 1 -3 8 25 26 26 26 27 27 27 27 28 30 31 32 34 36 39 47 65 66 65 65 65 66 66 66 67 67 66 67 66 66 64 64 64 62 62 63 63 64 62 61 60
-4 -2 2 -1 1 4 6 23 24 24 24 25 25 28 27 28 27 29 31 32 34 35 38 44 49 66 66 66 65 67 66 66 66 66 65 66 66 65 64 63 61 63 63 62 64 63 63 61 60
3 1 0 1 3 3 10 23 23 23 23 24 24 26 28 27 28 29 31 32 33 35 37 43 47 50 61 65 65 65 64 65 65 65 65 65 66 65 63 63 61 63 62 62 63 64 62 61 59
1 1 1 2 2 2 16 21 20 21 21 23 24 25 25 26 27 28 30 31 32 34 36 41 44 48 52 63 64 64 65 65 65 65 64 65 64 63 60 58 62 63 62 63 63 62 62 59 59
2 -0 1 1 2 3 7 19 16 18 21 22 23 25 24 25 27 28 29 30 32 33 36 39 43 46 51 58 65 65 65 64 63 63 63 64 64 62 59 57 62 64 63 63 63 62 60 59 60
-2 2 11 10 5 -0 2 1 14 16 19 20 22 24 24 25 26 29 30 30 32 33 35 38 42 45 49 51 62 64 63 61 62 62 63 63 63 64 63 61 61 63 64 63 64 63 61 59 58
1 13 14 14 8 4 3 8 12 16 18 20 21 23 23 24 25 28 29 32 31 33 35 38 41 43 46 49 53 61 63 62 62 63 62 62 62 63 61 61 59 61 62 63 63 63 61 60 59
1 9 13 15 7 3 2 8 12 16 20 20 22 24 25 23 24 27 27 30 30 32 34 36 39 41 44 47 50 53 62 63 62 62 61 61 62 62 60 59 58 60 60 62 63 62 61 61 60
3 9 8 1 2 5 16 11 14 20 23 25 24 24 23 20 22 25 26 28 31 31 33 35 38 39 41 45 47 49 54 59 62 61 61 61 61 60 59 58 57 59 60 60 62 63 61 61 60
3 10 12 4 7 11 15 9 14 24 24 23 20 20 21 15 17 21 23 26 30 31 32 35 37 38 40 42 45 47 50 55 62 62 61 62 61 61 59 59 57 58 60 60 62 62 62 61 61
12 13 19 14 12 4 11 15 15 18 19 16 16 17 17 16 13 19 21 24 29 29 31 34 36 37 38 40 43 45 48 52 55 62 62 62 62 62 61 60 58 59 61 62 60 61 62 62 61
12 14 13 16 7 1 6 7 8 14 19 19 15 15 14 14 13 15 20 24 27 27 30 32 36 36 37 39 41 44 46 49 53 56 63 62 62 62 62 60 58 58 59 61 62 61 62 61 61
11 11 15 18 12 6 1 5 15 15 19 22 16 15 16 16 16 17 18 21 26 26 26 31 34 36 37 38 40 43 43 45 49 54 63 63 62 62 62 61 59 57 57 60 61 61 61 61 59
11 12 15 7 2 6 5 2 16 17 17 17 20 18 17 19 21 19 19 21 22 26 26 27 32 34 36 37 39 41 43 43 45 48 54 63 62 62 62 62 60 58 59 60 61 59 59 60 60
Lifted_Index
7 7 5 3 3 2 1 1 2 2 3 3 4 2 0 -3 -4 -4 -4 -5 -5 -4 -4 -4 -5 -5 -5 -5 -5 -5 -5 -5 -5 -5 -5 -5 -5 -5 -5 -5 -5 -5 -5 -5 -4 -4 -3 -3 -3
7 6 5 4 3 2 1 2 2 3 3 3 3 1 -1 -3 -4 -5 -5 -5 -4 -4 -4 -4 -4 -5 -5 -5 -5 -5 -5 -5 -5 -5 -5 -5 -5 -5 -5 -5 -5 -4 -4 -4 -4 -3 -2 -2 -3
6 5 5 4 3 2 2 2 3 3 3 3 2 -0 -3 -4 -4 -5 -5 -5 -4 -4 -3 -4 -4 -5 -5 -5 -5 -5 -5 -5 -5 -5 -5 -5 -5 -5 -5 -4 -4 -4 -4 -4 -3 -2 -2 -2 -2
6 5 5 4 3 3 3 4 4 4 3 3 1 -2 -5 -5 -5 -5 -5 -5 -4 -4 -4 -4 -4 -5 -5 -5 -5 -5 -5 -5 -5 -4 -4 -4 -4 -4 -4 -4 -4 -3 -3 -3 -2 -2 -2 -2 -2
6 5 5 3 3 3 4 5 5 5 4 4 1 -3 -6 -6 -6 -5 -5 -4 -4 -4 -4 -4 -4 -4 -5 -5 -5 -5 -5 -4 -4 -4 -4 -4 -3 -3 -3 -3 -3 -3 -3 -2 -2 -1 -1 -1 -1
6 5 4 3 3 3 4 5 6 5 5 5 1 -3 -6 -7 -7 -6 -5 -4 -4 -4 -4 -4 -4 -4 -5 -5 -5 -5 -4 -4 -4 -3 -3 -3 -2 -2 -3 -3 -2 -2 -2 -1 -1 -1 -1 -1 -0
6 5 4 3 2 3 4 5 6 6 6 6 3 -2 -6 -7 -7 -6 -5 -4 -4 -4 -4 -4 -4 -4 -4 -5 -5 -4 -4 -4 -3 -3 -2 -2 -2 -2 -2 -2 -2 -1 -1 -1 -0 -0 -0 0 1
6 5 4 3 2 3 4 5 6 6 6 6 3 -1 -5 -6 -6 -6 -6 -5 -4 -4 -4 -4 -4 -4 -4 -4 -4 -4 -4 -3 -3 -2 -2 -2 -1 -1 -2 -2 -2 -1 -0 0 0 -0 0 1 1
5 5 4 3 3 4 5 6 6 6 6 6 3 -1 -5 -6 -6 -6 -5 -4 -4 -3 -3 -3 -3 -3 -4 -4 -4 -4 -3 -3 -2 -1 -1 -1 -1 -1 -1 -1 -1 -1 0 1 1 0 1 1 2
5 5 4 5 5 5 6 6 6 6 6 6 4 0 -4 -6 -6 -6 -5 -4 -4 -3 -3 -3 -3 -3 -3 -3 -3 -3 -3 -2 -2 -1 -1 -0 -0 -0 -0 -0 -0 -0 1 1 1 1 1 2 2
5 5 5 6 6 6 6 6 6 6 6 6 6 5 1 -3 -5 -5 -5 -4 -4 -3 -3 -3 -3 -3 -3 -3 -3 -3 -3 -2 -1 -1 -0 -0 0 0 0 0 0 0 1 1 2 1 1 2 2
5 5 6 6 6 6 6 6 6 6 7 7 8 7 5 2 0 -1 -2 -3 -4 -4 -3 -3 -3 -3 -3 -3 -3 -3 -2 -2 -1 -1 -0 0 0 1 1 1 1 1 1 2 2 1 2 2 2
5 6 6 7 7 7 6 6 6 7 8 8 8 7 7 6 5 3 2 -0 -2 -3 -3 -3 -3 -3 -3 -3 -3 -2 -2 -2 -1 -1 -0 0 0 1 1 1 1 1 2 2 2 1 1 2 2
6 6 6 7 7 7 7 6 6 8 8 8 7 7 7 7 6 6 5 3 1 -2 -3 -4 -4 -4 -4 -3 -2 -2 -2 -2 -1 -1 -0 0 0 1 1 1 1 2 2 2 2 1 1 1 2
6 5 5 6 7 7 6 6 7 8 9 7 7 7 7 7 7 6 6 5 4 1 -2 -4 -5 -5 -4 -3 -3 -3 -2 -2 -1 -1 -0 -0 0 1 1 1 1 2 2 3 2 2 1 1 1
5 5 5 5 6 6 6 6 7 9 8 7 7 7 7 7 7 7 6 6 5 3 -0 -3 -5 -6 -5 -4 -4 -3 -3 -2 -2 -1 -1 -0 0 1 1 1 2 2 3 3 2 2 2 1 1
4 4 4 5 6 6 6 6 7 8 8 7 7 7 7 8 8 7 7 6 5 4 1 -2 -4 -5 -6 -5 -4 -4 -3 -3 -2 -1 -1 -0 0 1 1 2 2 3 4 3 2 2 2 1 1
4 4 4 5 6 6 6 6 7 8 8 7 7 7 7 8 8 8 7 7 5 3 1 -2 -3 -5 -5 -5 -4 -4 -3 -3 -2 -2 -1 -1 -0 1 1 2 2 3 3 3 2 2 1 1 1
6 6 5 6 6 6 6 6 7 7 7 7 7 7 7 8 8 8 8 7 5 3 1 -1 -3 -4 -4 -5 -5 -4 -3 -3 -3 -2 -2 -1 -0 0 1 2 2 3 3 2 2 2 1 1 1
6 6 5 6 6 6 5 5 6 6 7 7 7 7 7 7 7 7 7 7 6 4 1 -1 -2 -3 -3 -4 -5 -4 -4 -3 -3 -3 -3 -2 -1 0 1 2 2 2 2 2 2 2 2 1 1
6 6 6 5 5 5 4 4 5 5 6 7 7 7 8 7 7 7 6 6 6 5 2 0 -1 -2 -3 -4 -4 -4 -3 -3 -3 -3 -3 -2 -1 -0 0 1 2 2 2 2 2 2 2 2 2
6 7 7 6 5 4 4 3 4 5 5 6 6 7 8 8 8 8 7 7 6 6 4 2 -0 -2 -3 -3 -3 -3 -3 -3 -3 -3 -3 -2 -2 -1 -0 1 1 1 1 1 2 2 2 2 2
6 6 6 5 4 3 3 3 3 4 4 5 6 7 8 9 9 9 8 8 8 7 6 3 1 -1 -2 -3 -3 -3 -3 -3 -2 -2 -2 -2 -2 -1 -1 0 1 2 2 2 2 2 2 2 2
4 4 3 2 2 2 2 2 2 3 4 5 6 7 8 9 9 10 10 9 9 9 7 4 2 -0 -1 -2 -3 -3 -3 -3 -2 -2 -2 -2 -2 -2 -1 -0 1 2 2 2 2 2 2 2 2
2 1 1 1 1 1 1 1 3 4 5 6 6 8 8 9 10 10 10 10 10 9 8 6 3 1 -0 -2 -3 -3 -3 -3 -2 -2 -2 -2 -2 -2 -2 -1 0 2 3 3 2 2 2 1 1
1 1 0 0 0 0 1 2 4 5 6 6 6 7 8 9 10 11 11 10 10 10 10 8 5 3 1 -0 -2 -2 -2 -2 -2 -2 -2 -2 -2 -2 -2 -1 -1 1 2 2 2 2 2 1 1
1 1 0 0 0 1 2 3 4 5 5 5 6 6 8 9 11 12 12 11 11 11 11 10 8 6 4 2 -0 -1 -2 -1 -1 -2 -3 -3 -2 -2 -1 -1 -1 0 1 2 2 2 2 2 1
1 1 1 1 1 1 1 3 4 5 5 6 6 7 8 9 11 12 12 12 12 12 12 11 10 8 6 4 2 -0 -1 -1 -1 -2 -2 -3 -2 -2 -1 -1 -1 -0 1 1 1 1 1 2 2
2 2 2 1 1 1 1 2 4 6 6 7 7 8 9 9 11 12 13 12 12 12 12 12 11 10 8 7 4 1 -0 -1 -1 -1 -2 -3 -3 -2 -2 -1 -1 -1 -0 0 1 1 1 1 1
2 2 2 1 1 1 1 2 5 7 7 7 8 8 9 9 10 11 12 13 12 12 12 12 11 11 10 8 5 3 1 -0 -1 -1 -1 -2 -3 -2 -2 -1 -0 -0 -1 0 1 1 1 1 1